Location: Hermaringen
(48.5952°N, 10.2585°E)
Time: 06:29:13
(UTC+00:00)

Cosmos 1943 Rocket - Pass Details

Date: 18 November 2025
Orbit: 812 x 841 km, 71.0° (Epoch: 06 December)

Event Time Altitude Azimuth Distance (km) Brightness Sun altitude
Rises 17:22:10 0° 215° (SW) 3,373 6.0 -17.3°
Reaches altitude 10° 17:24:38 10° 218° (SW) 2,439 5.3 -17.7°
Maximum altitude 17:30:12 67° 300° (WNW) 897 2.5 -18.6°
Enters shadow 17:35:14 13° 23° (NNE) 2,235 4.1 -19.5°
